Location: Knowlton
(51.2333°N, 1.2667°E)
Time: 04:49:33
(UTC+00:00)

ZACube-1 - Pass Details

Date: 01 December 2021
Orbit: 582 x 665 km, 97.6° (Epoch: 25 January)

Event Time Altitude Azimuth Distance (km) Brightness Sun altitude
Rises 03:35:42 0° 21° (NNE) 2,987 ? -36.8°
Reaches altitude 10° 03:38:10 10° 32° (NNE) 2,081 ? -36.4°
Enters shadow 03:38:53 14° 38° (NE) 1,841 ? -36.3°
